Location: Cape Cod Imaging Station
(41.7417°N, 70.1583°W)
Time: 03:00:12
(UTC-04:00)

OTV 5 (USA 277) - Visible Passes

Search period start: 22 July 2018 00:00
Search period end: 01 August 2018 00:00
Orbit: 312 x 321 km, 54.5° (Epoch: 05 July)

Date Brightness Start Highest point End Pass type
(mag) Time Alt. Az. Time Alt. Az. Time Alt. Az.
28 Jul ? 04:21:34 10° SSE 04:23:16 15° SE 04:24:58 10° E visible
29 Jul ? 04:35:23 13° SSW 04:37:32 43° SE 04:40:08 10° ENE visible
30 Jul ? 04:49:27 11° WSW 04:51:56 59° NW 04:54:37 10° NE visible
31 Jul ? 03:32:35 24° ESE 03:32:35 24° ESE 03:34:32 10° ENE visible
